Regional Weather Roundup
Issued by NWS Goodland, KS

Home | Current Version | Previous Version | Graphics & Text | Print | Product List | Glossary On
Versions: 1 2 3 4 5 6 7 8 9 10 11 12 13 14 15 16 17 18 19 20 21 22 23 24 25 26 27 28 29 30 31 32 33 34 35 36 37 38 39 40 41 42 43 44 45 46 47 48 49 50
000
ASUS43 KGLD 042008
RWRGLD

GOODLAND FORECAST AREA HOURLY WEATHER ROUNDUP
NATIONAL WEATHER SERVICE GOODLAND KS
200 PM MDT SAT JUL 04 2015

...OFFICIAL OBSERVATIONS...

CITY           SKY/WX    TMP DP  RH WIND       PRES   REMARKS
GOODLAND KS    SUNNY     91  59  33 S15G25    29.93F
HILL CITY KS   MOSUNNY   92  62  36 S14G23    29.92F
IMPERIAL NEB   SUNNY     94  58  29 S17G25    29.90F
MCCOOK NEB     MOSUNNY   94  59  31 S18G24    29.90F
AKRON CO       SUNNY     91  53  27 S10G24    29.95F
BURLINGTON CO  SUNNY     92  53  26 SE20G25   29.96F
LIMON CO       SUNNY     86  56  35 SE12      30.02F
$$

...UNOFFICIAL OBSERVATIONS...

CITY           SKY/WX    TMP DP  RH WIND       PRES   REMARKS
COLBY KS       SUNNY     93  61  33 S17G28    29.93F
GOVE KS          N/A     91  32  12 MISG        N/A
NORTON KS      MOSUNNY   90  54  29 S15G22    29.92F
SHARON SPRINGS   N/A     92  61  35 SE16G28     N/A
KIT CARSON CO    N/A     90  57  32 MISG        N/A
YUMA CO          N/A     90  60  36 SW5G16      N/A
$$


USA.gov is the U.S. government's official web portal to all federal, state and local government web resources and services.